Location: Blackwater Beach
(38.5801°N, 75.1577°W)
Time: 03:30:59
(UTC+00:00)

Cosmos 2297 Rocket - Pass Details

Date: 19 May 2026
Orbit: 838 x 842 km, 71.0° (Epoch: 9 June)

Event Time Altitude Azimuth Distance (km) Brightness Sun altitude
Exits shadow 05:28:08 14° 285° (WNW) 2,210 4.4 -31.2°
Maximum altitude 05:30:07 16° 309° (NW) 2,069 4.5 -31.1°
Drops below altitude 10° 05:33:29 10° 346° (NNW) 2,461 5.4 -31.0°
Sets 05:36:59 0° 8° (N) 3,400 6.5 -30.9°
